Total_Precipitation_Accumulation
0.06 0.14 0.21 0.22 0.20 0.17 0.13 0.11 0.22 0.26 0.33 0.39 0.47 0.39 0.32 0.29 0.25 0.27 0.31 0.28 0.23 0.25 0.32 0.34 0.36 0.33 0.33 0.36 0.38 0.52 0.87 1.06 1.04 0.98 0.98 0.94 0.91 0.96 1.02 1.10 1.16 1.33 1.50 1.62
0.10 0.13 0.15 0.16 0.19 0.16 0.11 0.09 0.09 0.14 0.27 0.30 0.39 0.40 0.36 0.32 0.26 0.32 0.37 0.32 0.28 0.25 0.33 0.39 0.42 0.42 0.38 0.38 0.39 0.51 0.78 0.99 1.01 0.95 0.89 0.84 0.87 0.99 1.15 1.23 1.34 1.48 1.54 1.53
0.15 0.18 0.17 0.24 0.20 0.16 0.14 0.12 0.13 0.21 0.31 0.30 0.35 0.41 0.42 0.45 0.42 0.35 0.39 0.34 0.27 0.28 0.37 0.50 0.49 0.48 0.49 0.44 0.43 0.57 0.79 0.96 1.05 1.01 1.01 0.98 0.95 1.10 1.28 1.36 1.42 1.48 1.48 1.45
0.21 0.25 0.35 0.26 0.20 0.21 0.23 0.25 0.26 0.28 0.31 0.34 0.40 0.41 0.50 0.57 0.52 0.40 0.40 0.40 0.40 0.37 0.42 0.52 0.51 0.53 0.57 0.56 0.57 0.69 0.87 1.03 1.09 1.06 1.10 1.18 1.19 1.26 1.43 1.58 1.59 1.56 1.53 1.48
0.30 0.33 0.39 0.36 0.28 0.32 0.36 0.39 0.40 0.43 0.38 0.42 0.43 0.47 0.57 0.53 0.51 0.52 0.49 0.48 0.53 0.56 0.53 0.57 0.59 0.61 0.63 0.66 0.72 0.83 0.89 1.03 1.14 1.22 1.32 1.35 1.38 1.50 1.66 1.77 1.73 1.72 1.75 1.72
0.43 0.50 0.55 0.55 0.40 0.34 0.40 0.67 0.52 0.53 0.53 0.47 0.49 0.68 0.72 0.55 0.51 0.50 0.48 0.50 0.52 0.61 0.64 0.68 0.68 0.72 0.78 0.85 0.97 1.13 1.20 1.26 1.44 1.63 1.80 1.87 1.89 1.94 1.97 2.02 1.93 1.88 1.81 1.77
0.63 0.73 0.66 0.51 0.44 0.39 0.74 1.03 0.76 0.73 0.70 0.61 0.71 0.78 0.74 0.59 0.50 0.48 0.46 0.46 0.48 0.52 0.61 0.66 0.69 0.84 1.02 1.09 1.21 1.35 1.46 1.53 1.74 2.06 2.22 2.17 2.14 2.09 2.05 2.06 2.04 2.00 1.91 1.88
0.83 1.03 1.05 0.58 0.56 0.82 1.03 0.88 0.90 0.91 0.87 0.81 0.79 0.82 0.79 0.73 0.55 0.46 0.43 0.43 0.45 0.49 0.54 0.65 0.77 1.00 1.28 1.38 1.36 1.45 1.63 1.83 2.04 2.28 2.24 2.13 2.27 2.21 2.19 2.24 2.20 2.11 2.07 2.02
1.03 1.19 1.00 0.70 0.82 1.00 0.98 0.93 0.93 0.92 0.88 0.78 0.74 0.84 0.78 0.67 0.60 0.46 0.40 0.43 0.48 0.53 0.62 0.71 0.89 1.22 1.51 1.58 1.63 1.66 1.79 1.95 2.06 2.17 2.33 2.46 2.51 2.43 2.35 2.31 2.27 2.12 2.04 1.95
1.14 1.23 1.06 0.89 0.89 0.88 0.93 0.93 0.87 0.79 0.75 0.77 0.72 0.70 0.67 0.56 0.49 0.46 0.45 0.47 0.53 0.61 0.75 0.93 1.09 1.37 1.50 1.55 1.58 1.62 1.64 1.67 1.79 1.97 2.10 2.19 2.42 2.50 2.44 2.30 2.24 2.20 2.08 1.95
1.34 1.45 1.29 1.17 1.01 0.89 0.91 0.87 0.86 0.85 0.78 0.72 0.67 0.61 0.53 0.47 0.44 0.44 0.44 0.49 0.60 0.69 0.78 0.91 1.08 1.26 1.30 1.41 1.49 1.60 1.59 1.56 1.57 1.63 1.76 1.85 1.97 2.10 2.11 2.13 1.96 1.86 1.74 1.68
1.40 1.27 1.20 1.31 1.13 0.97 0.91 0.91 0.98 1.05 1.03 0.84 0.69 0.64 0.59 0.51 0.46 0.41 0.41 0.49 0.60 0.71 0.81 0.91 1.05 1.24 1.31 1.39 1.47 1.54 1.54 1.48 1.48 1.51 1.60 1.68 1.73 1.69 1.54 1.49 1.33 1.20 1.16 1.12
0.98 1.00 1.04 1.13 1.06 1.03 1.04 1.09 1.16 1.15 1.01 0.77 0.62 0.59 0.55 0.48 0.44 0.42 0.44 0.53 0.65 0.74 0.82 0.89 0.97 1.13 1.30 1.44 1.55 1.63 1.56 1.43 1.33 1.29 1.35 1.40 1.50 1.64 1.70 1.49 1.28 1.10 0.98 0.85
0.88 1.00 1.14 1.17 1.17 1.08 1.06 1.12 1.08 0.93 0.83 0.72 0.59 0.52 0.46 0.39 0.34 0.32 0.35 0.44 0.55 0.65 0.71 0.77 0.87 0.98 1.15 1.31 1.41 1.47 1.46 1.35 1.25 1.25 1.29 1.34 1.42 1.54 1.67 1.67 1.42 1.09 0.94 0.82
0.92 0.97 1.08 1.06 1.07 1.12 1.12 1.10 1.06 0.92 0.79 0.76 0.69 0.61 0.52 0.46 0.43 0.41 0.42 0.47 0.58 0.67 0.70 0.76 0.88 0.96 1.11 1.27 1.34 1.32 1.27 1.19 1.13 1.18 1.22 1.20 1.27 1.34 1.41 1.46 1.36 1.19 1.00 0.80
1.04 0.93 1.00 1.01 0.94 0.96 0.95 0.90 0.87 0.80 0.68 0.62 0.56 0.53 0.49 0.47 0.46 0.45 0.49 0.64 0.84 0.87 0.84 0.85 0.89 0.91 1.08 1.27 1.32 1.27 1.17 1.00 0.92 0.98 1.03 1.05 1.11 1.17 1.20 1.25 1.23 1.16 1.04 0.79
1.06 1.04 0.99 0.92 0.87 0.85 0.76 0.67 0.65 0.62 0.58 0.55 0.49 0.41 0.37 0.37 0.42 0.49 0.58 0.68 0.77 0.78 0.79 0.86 0.84 0.83 0.99 1.17 1.26 1.21 1.10 0.94 0.72 0.67 0.76 0.83 0.93 1.01 1.05 1.06 1.09 1.07 0.92 0.66
0.80 0.81 0.81 0.77 0.75 0.72 0.68 0.58 0.52 0.49 0.46 0.43 0.42 0.39 0.38 0.44 0.58 0.70 0.78 0.79 0.76 0.67 0.65 0.70 0.68 0.70 0.85 0.92 0.99 1.06 0.99 0.90 0.74 0.65 0.68 0.72 0.80 0.90 0.92 0.89 0.89 0.87 0.77 0.58
0.63 0.61 0.61 0.60 0.56 0.49 0.50 0.48 0.46 0.43 0.39 0.37 0.39 0.43 0.47 0.55 0.69 0.81 0.88 0.98 1.01 0.88 0.71 0.61 0.57 0.60 0.74 0.77 0.80 0.92 0.92 0.83 0.72 0.65 0.67 0.65 0.69 0.79 0.80 0.77 0.74 0.70 0.63 0.56
0.60 0.56 0.57 0.53 0.48 0.43 0.40 0.38 0.37 0.38 0.39 0.40 0.43 0.50 0.59 0.70 0.82 0.94 1.00 1.05 1.06 1.01 0.81 0.65 0.59 0.59 0.64 0.69 0.76 0.79 0.82 0.78 0.66 0.61 0.63 0.68 0.68 0.71 0.67 0.63 0.61 0.58 0.54 0.53
0.60 0.58 0.59 0.54 0.48 0.42 0.37 0.34 0.35 0.40 0.45 0.47 0.54 0.62 0.74 0.86 0.94 1.05 1.24 1.25 1.01 0.88 0.75 0.64 0.58 0.57 0.58 0.65 0.70 0.75 0.79 0.80 0.70 0.60 0.59 0.62 0.63 0.64 0.62 0.61 0.57 0.51 0.50 0.51
0.54 0.55 0.51 0.45 0.43 0.42 0.37 0.33 0.36 0.46 0.58 0.61 0.60 0.66 0.80 0.89 1.00 1.11 1.17 1.30 1.17 1.00 0.75 0.60 0.52 0.49 0.49 0.55 0.60 0.68 0.72 0.74 0.68 0.60 0.55 0.56 0.57 0.64 0.66 0.60 0.55 0.48 0.48 0.50
0.43 0.45 0.45 0.40 0.36 0.36 0.35 0.34 0.37 0.48 0.63 0.71 0.72 0.76 0.88 0.91 1.01 1.32 1.38 1.21 1.13 1.01 0.72 0.56 0.52 0.45 0.40 0.43 0.52 0.60 0.63 0.64 0.63 0.53 0.46 0.45 0.49 0.56 0.61 0.59 0.56 0.49 0.48 0.46
0.42 0.39 0.41 0.38 0.32 0.32 0.34 0.36 0.39 0.47 0.55 0.60 0.59 0.65 0.80 0.87 0.88 0.94 1.14 1.25 1.18 1.01 0.75 0.61 0.52 0.42 0.37 0.36 0.49 0.60 0.63 0.62 0.60 0.49 0.40 0.39 0.44 0.52 0.56 0.55 0.54 0.49 0.46 0.44
0.44 0.40 0.38 0.37 0.38 0.43 0.47 0.52 0.58 0.61 0.62 0.61 0.53 0.51 0.60 0.75 0.87 0.83 0.86 0.98 1.09 0.98 0.81 0.68 0.57 0.51 0.41 0.39 0.48 0.58 0.62 0.61 0.54 0.47 0.44 0.48 0.53 0.57 0.54 0.51 0.51 0.47 0.48 0.47
0.49 0.44 0.40 0.37 0.38 0.44 0.56 0.69 0.83 0.85 0.84 0.83 0.68 0.53 0.54 0.60 0.64 0.69 0.76 0.81 0.87 0.88 0.80 0.75 0.65 0.58 0.52 0.50 0.53 0.59 0.65 0.67 0.58 0.53 0.55 0.61 0.61 0.59 0.58 0.52 0.46 0.46 0.45 0.42
0.49 0.43 0.39 0.40 0.46 0.52 0.63 0.77 0.93 0.98 0.95 0.97 0.83 0.61 0.53 0.54 0.56 0.61 0.68 0.75 0.77 0.79 0.78 0.73 0.67 0.59 0.53 0.53 0.55 0.57 0.62 0.65 0.62 0.60 0.59 0.60 0.61 0.61 0.58 0.52 0.49 0.47 0.46 0.43